Regional Weather Roundup
Issued by NWS

Home | Current Version | Previous Version | Text Only | Print | Product List | Glossary On
Versions: 1 2 3 4 5 6 7 8 9 10 11 12 13 14 15 16 17 18 19 20 21 22 23 24 25 26 27 28 29 30 31 32 33 34 35 36 37 38 39 40 41 42 43 44 45 46 47 48 49 50
000
ASUS43 KBIS 312210
RWRND

NORTH DAKOTA REGIONAL WEATHER ROUNDUP
NATIONAL WEATHER SERVICE BISMARCK ND
500 PM CDT FRI JUL 31 2015

NOTE: "FAIR" INDICATES FEW OR NO CLOUDS BELOW 12,000 FEET WITH NO
SIGNIFICANT WEATHER AND/OR OBSTRUCTIONS TO VISIBILITY.


NDZ001>003-009>011-017-312300-
NORTHWEST NORTH DAKOTA

CITY           SKY/WX    TMP DP  RH WIND       PRES   REMARKS
WILLISTON      SUNNY     88  44  21 E8        30.08F
MINOT          SUNNY     83  46  27 NW10      30.07S
MINOT AFB      SUNNY     85  47  26 NW10G21   30.06S
$$

NDZ018>021-031>035-040>046-312300-
SOUTHWEST NORTH DAKOTA

CITY           SKY/WX    TMP DP  RH WIND       PRES   REMARKS
BISMARCK       SUNNY     89  50  26 NW10G20   30.07F
DICKINSON      SUNNY     88  43  20 E5        30.09F
GARRISON         N/A     83  54  36 N13       30.08F
HETTINGER ARPT SUNNY     89  39  17 VRB5      30.13F
$$

NDZ004>008-012>016-024-026-027-054-312300-
NORTHEAST NORTH DAKOTA

CITY           SKY/WX    TMP DP  RH WIND       PRES   REMARKS
GRAND FORKS    MOSUNNY   82  49  31 NW15G21   29.99F
GRND FRKS AFB  SUNNY     80  49  33 NW12      30.01F
DEVILS LAKE    SUNNY     79  50  36 NW10G16   30.03F
$$

NDZ022-023-025-028>030-036>039-047>053-312300-
SOUTHEAST NORTH DAKOTA

CITY           SKY/WX    TMP DP  RH WIND       PRES   REMARKS
FARGO          SUNNY     83  54  36 NW14      30.02F
JAMESTOWN      SUNNY     83  55  38 NW9       30.04S
$$



USA.gov is the U.S. government's official web portal to all federal, state and local government web resources and services.